Total_Precipitation_Accumulation
2.25 2.53 3.33 4.17 4.71 3.59 2.61 2.14 1.82 1.60 1.33 1.01 0.80 0.82 1.12 1.57 1.88 1.90 1.76 1.57 1.01 0.91 0.98 1.39 1.67 1.56 1.44 1.35 1.32 1.30 1.26 1.25 1.26 1.27 1.26 1.15 1.07 1.11 1.21 1.17 1.06 1.04 0.99 0.96 0.93 0.94 0.94 0.93 0.97
1.95 2.70 3.88 4.74 3.98 2.79 2.39 1.95 1.73 1.43 1.08 0.83 0.72 0.64 0.73 0.59 0.57 1.03 1.91 1.84 1.03 0.81 0.92 1.30 1.76 1.67 1.55 1.51 1.50 1.49 1.35 1.22 1.18 1.12 1.08 1.06 1.04 1.04 1.11 1.18 1.07 1.08 1.01 0.93 0.89 0.87 0.92 0.95 1.02
2.24 3.12 4.32 4.37 3.06 2.37 2.34 1.81 1.36 0.98 0.73 0.77 0.80 0.67 0.72 0.83 0.95 1.43 1.81 1.33 0.96 0.83 0.92 1.43 1.89 1.71 1.59 1.56 1.63 1.56 1.40 1.25 1.14 1.06 1.03 1.00 1.06 1.10 1.13 1.05 1.01 1.06 1.06 0.98 1.02 1.01 1.04 1.06 1.15
2.49 3.57 3.93 3.33 2.54 1.95 1.70 1.43 1.09 0.95 0.67 0.45 0.61 0.78 0.68 0.92 1.09 1.32 1.27 0.93 0.73 0.72 0.81 1.27 1.81 1.67 1.50 1.42 1.55 1.49 1.34 1.32 1.21 1.15 1.12 1.10 1.20 1.37 1.26 1.11 1.09 1.08 1.11 1.04 1.07 1.11 1.15 1.19 1.23
2.76 3.55 3.53 3.16 2.37 2.02 1.51 1.19 1.00 0.97 0.78 0.52 0.52 0.80 0.88 1.20 1.20 1.20 1.12 0.93 0.73 0.72 0.75 1.04 1.54 1.52 1.37 1.32 1.39 1.39 1.36 1.36 1.21 1.16 1.17 1.19 1.25 1.42 1.52 1.38 1.28 1.25 1.22 1.15 1.12 1.12 1.11 1.17 1.27
3.18 3.26 3.30 3.11 2.55 2.23 1.74 1.27 0.92 0.84 0.70 0.57 0.55 0.81 1.09 1.51 1.41 1.35 1.16 1.09 0.95 0.82 0.72 0.87 1.31 1.38 1.30 1.32 1.33 1.31 1.27 1.22 1.07 1.06 1.15 1.17 1.19 1.33 1.49 1.48 1.42 1.37 1.29 1.28 1.25 1.24 1.20 1.21 1.21
2.95 2.91 2.63 2.24 2.39 2.51 1.81 1.16 1.06 0.98 0.90 0.79 0.58 0.84 1.18 1.60 1.47 1.19 1.17 1.25 1.35 1.19 1.00 0.94 1.03 1.08 1.16 1.27 1.30 1.40 1.42 1.23 1.05 0.99 1.01 1.04 1.06 1.16 1.27 1.35 1.34 1.30 1.31 1.32 1.29 1.29 1.29 1.32 1.27
2.41 2.46 2.21 2.14 2.38 2.54 1.56 1.02 0.85 0.81 0.82 0.56 0.49 0.77 1.00 1.22 1.31 1.24 1.20 1.28 1.28 1.23 1.17 1.07 1.09 1.05 1.02 1.10 1.32 1.56 1.65 1.44 1.17 1.04 0.97 1.02 1.01 1.03 1.17 1.22 1.33 1.37 1.37 1.42 1.43 1.40 1.33 1.40 1.40
2.06 2.37 2.40 2.34 2.27 2.00 1.22 0.92 0.73 0.53 0.55 0.50 0.41 0.60 0.78 0.80 0.99 1.19 1.21 1.23 1.19 1.14 1.16 1.08 1.08 1.12 1.19 1.21 1.31 1.57 1.70 1.63 1.24 1.03 1.00 0.91 0.79 0.92 1.03 1.03 1.34 1.48 1.57 1.58 1.58 1.50 1.40 1.36 1.36
2.10 2.29 2.16 1.76 1.55 1.28 0.98 0.85 0.69 0.71 0.80 0.69 0.53 0.61 0.76 0.82 0.90 1.07 1.11 1.02 0.98 0.97 0.99 1.00 0.98 0.96 0.98 1.02 1.36 1.60 1.44 1.50 1.20 1.13 1.05 0.97 1.01 1.06 0.93 0.92 1.24 1.46 1.60 1.60 1.54 1.50 1.39 1.21 1.03
1.77 1.88 1.55 1.34 1.14 0.92 0.86 0.81 0.62 0.74 0.91 0.70 0.53 0.60 0.74 0.84 0.95 0.96 0.99 0.93 0.85 0.86 0.77 0.75 0.78 0.73 0.75 0.85 1.02 1.31 1.53 1.55 1.48 1.40 1.29 1.25 1.16 1.00 0.90 0.92 1.00 1.16 1.27 1.21 1.30 1.30 1.20 1.09 1.01
1.54 1.47 1.28 1.15 0.86 0.90 0.90 0.76 0.67 0.66 0.69 0.50 0.45 0.51 0.66 0.83 0.96 0.91 0.92 0.92 0.88 0.92 0.90 0.73 0.64 0.64 0.62 0.67 0.81 1.05 1.24 1.35 1.33 1.24 1.14 1.33 1.27 1.07 0.97 1.07 1.13 1.17 1.24 1.41 1.46 1.41 1.29 1.16 1.03
1.43 1.48 1.20 0.98 0.85 0.90 0.84 0.77 0.66 0.67 0.56 0.44 0.44 0.57 0.77 0.90 0.97 0.98 0.93 0.94 0.93 0.94 0.97 0.85 0.65 0.57 0.60 0.62 0.67 0.75 0.96 1.07 1.06 1.19 1.14 1.19 1.19 1.08 0.99 1.01 1.20 1.22 1.27 1.49 1.61 1.45 1.35 1.34 1.26
1.26 1.21 1.16 0.99 0.91 0.93 0.94 0.77 0.66 0.78 0.67 0.56 0.61 0.73 0.89 0.97 0.96 0.91 0.85 0.83 0.83 0.84 0.88 0.82 0.71 0.67 0.64 0.60 0.56 0.58 0.63 0.79 0.81 0.82 0.80 0.99 1.13 1.11 1.13 1.04 1.14 1.31 1.37 1.43 1.49 1.44 1.36 1.32 1.33
1.04 1.12 1.26 1.16 1.11 1.07 0.95 1.02 0.80 0.81 0.80 0.68 0.66 0.72 0.92 0.89 0.87 0.82 0.76 0.70 0.65 0.70 0.74 0.77 0.77 0.76 0.73 0.70 0.68 0.63 0.64 0.68 0.75 0.82 0.82 0.92 1.04 1.12 1.12 1.02 1.07 1.24 1.45 1.43 1.41 1.38 1.41 1.27 1.20
1.20 1.48 1.72 1.41 1.21 1.18 1.08 1.21 0.88 0.88 0.83 0.72 0.69 0.67 0.75 0.66 0.67 0.68 0.64 0.58 0.54 0.54 0.56 0.64 0.65 0.69 0.72 0.74 0.76 0.71 0.74 0.76 0.73 0.80 0.79 0.80 0.95 1.11 1.19 1.13 1.09 1.25 1.47 1.64 1.69 1.58 1.52 1.39 1.31
1.51 1.60 1.54 1.45 1.16 1.17 1.09 1.12 0.95 0.82 0.77 0.67 0.65 0.66 0.62 0.55 0.53 0.55 0.54 0.49 0.42 0.42 0.41 0.46 0.51 0.57 0.63 0.70 0.76 0.75 0.78 0.91 0.98 0.88 0.76 0.80 0.93 1.05 1.25 1.36 1.30 1.32 1.50 1.59 1.60 1.63 1.52 1.50 1.44
1.22 1.22 1.22 1.30 1.09 1.01 0.98 0.91 0.93 0.77 0.62 0.56 0.56 0.56 0.53 0.50 0.43 0.44 0.45 0.45 0.40 0.37 0.35 0.37 0.45 0.47 0.49 0.58 0.74 0.83 0.79 0.88 1.09 1.13 1.12 1.16 1.22 1.26 1.41 1.52 1.52 1.52 1.59 1.58 1.72 1.91 1.72 1.53 1.53
0.90 0.91 0.96 0.89 0.75 0.86 0.87 0.81 0.86 0.80 0.65 0.51 0.48 0.51 0.48 0.45 0.45 0.39 0.35 0.42 0.40 0.34 0.30 0.34 0.40 0.43 0.43 0.50 0.61 0.71 0.80 0.98 1.19 1.24 1.32 1.46 1.47 1.49 1.62 1.73 1.77 1.70 1.62 1.70 1.88 2.25 2.12 1.75 1.59
0.83 0.82 0.86 0.76 0.66 0.69 0.78 0.83 0.81 0.74 0.67 0.55 0.47 0.40 0.38 0.39 0.36 0.31 0.30 0.33 0.33 0.29 0.27 0.29 0.38 0.47 0.51 0.54 0.68 0.83 1.05 1.16 1.32 1.48 1.47 1.50 1.55 1.59 1.67 1.87 1.99 1.92 1.91 2.00 2.05 2.31 2.46 2.16 1.97
0.81 0.75 0.69 0.72 0.68 0.66 0.72 0.92 0.87 0.80 0.66 0.54 0.46 0.36 0.30 0.33 0.31 0.24 0.26 0.28 0.28 0.27 0.30 0.31 0.42 0.63 0.81 0.89 1.10 1.39 1.64 1.71 1.64 1.65 1.70 1.69 1.71 1.78 1.75 1.86 2.05 2.04 2.02 2.06 2.25 2.57 2.88 2.78 2.50
0.82 0.57 0.50 0.62 0.74 0.83 0.68 0.96 0.83 0.77 0.70 0.54 0.45 0.40 0.32 0.35 0.38 0.29 0.27 0.30 0.28 0.30 0.40 0.55 0.75 1.04 1.27 1.40 1.57 1.79 1.90 1.93 1.86 1.88 1.88 1.86 1.76 1.69 1.69 1.82 2.01 2.16 2.27 2.35 2.41 2.42 2.78 3.04 2.85
0.64 0.52 0.51 0.61 0.72 0.73 0.62 0.74 0.70 0.62 0.68 0.59 0.53 0.48 0.43 0.42 0.41 0.42 0.41 0.45 0.47 0.56 0.75 1.05 1.29 1.49 1.63 1.68 1.75 1.93 2.07 2.23 2.26 2.15 2.01 1.90 1.86 1.79 1.70 1.74 1.82 1.87 1.97 2.11 2.24 2.31 2.55 2.73 2.87
0.52 0.59 0.63 0.65 0.73 0.83 0.58 0.58 0.70 0.58 0.57 0.60 0.60 0.53 0.47 0.45 0.46 0.56 0.67 0.79 0.89 0.99 1.17 1.37 1.49 1.62 1.61 1.61 1.65 1.76 1.94 2.11 2.14 2.17 2.14 2.01 1.88 1.77 1.66 1.61 1.70 1.72 1.73 1.88 2.00 2.10 2.36 2.53 2.66
0.57 0.74 0.93 0.94 0.90 0.79 0.49 0.58 0.61 0.43 0.41 0.48 0.54 0.52 0.49 0.46 0.55 0.75 0.89 1.05 1.16 1.26 1.36 1.38 1.35 1.38 1.42 1.41 1.42 1.49 1.55 1.59 1.65 1.77 1.71 1.57 1.46 1.41 1.39 1.31 1.36 1.50 1.55 1.73 1.82 1.76 1.82 2.00 2.23
0.53 0.56 0.80 0.91 0.81 0.69 0.54 0.71 0.63 0.46 0.43 0.40 0.44 0.51 0.59 0.70 0.81 0.93 1.03 1.14 1.18 1.30 1.35 1.30 1.25 1.22 1.15 1.11 1.14 1.14 1.17 1.22 1.25 1.27 1.22 1.15 1.11 1.08 1.05 1.04 1.06 1.13 1.20 1.43 1.66 1.64 1.65 1.71 1.81
0.45 0.44 0.46 0.63 0.61 0.64 0.59 0.70 0.64 0.44 0.42 0.40 0.41 0.51 0.65 0.83 1.07 1.24 1.23 1.14 1.07 1.12 1.19 1.16 1.09 1.03 0.94 0.88 0.91 0.93 0.99 1.01 0.98 0.96 0.90 0.90 0.84 0.84 0.82 0.85 0.95 1.01 0.99 1.10 1.25 1.43 1.49 1.56 1.63
0.35 0.38 0.47 0.70 0.81 0.83 0.71 0.78 0.72 0.55 0.49 0.46 0.50 0.62 0.77 0.93 1.14 1.41 1.53 1.41 1.14 0.97 1.00 0.96 0.92 0.93 0.90 0.86 0.88 0.87 0.79 0.72 0.72 0.74 0.68 0.67 0.72 0.75 0.75 0.72 0.74 0.82 0.85 0.95 1.07 1.12 1.22 1.30 1.46
0.35 0.40 0.50 0.66 0.67 0.89 1.12 1.12 0.83 0.72 0.66 0.65 0.69 0.75 0.80 1.03 1.33 1.47 1.49 1.36 1.18 0.91 0.85 0.83 0.80 0.83 0.87 0.80 0.84 0.85 0.74 0.60 0.56 0.53 0.50 0.51 0.54 0.59 0.60 0.62 0.69 0.72 0.75 0.77 0.77 0.82 0.89 0.96 1.06
0.32 0.40 0.54 0.81 0.82 0.78 0.99 1.03 0.67 0.70 0.81 0.76 0.82 0.90 0.91 0.96 0.99 0.99 1.09 1.10 1.03 0.90 0.83 0.88 0.92 0.92 0.83 0.76 0.76 0.77 0.70 0.59 0.59 0.53 0.45 0.47 0.52 0.54 0.54 0.59 0.62 0.63 0.69 0.72 0.71 0.70 0.73 0.83 0.92